Hourly Data Report for October 04, 2017

All times are specified in Local Standard Time (LST). Add 1 hour to adjust for Daylight Saving Time where and when it is observed.

HAMILTON A
ONTARIO

43°10'25.000" N
79°56'06.000" W
237.70 m
6153193
71263
YHM

Download Data

Hourly Data (October 2017)
Hourly Data Report for October 4, 2017
Temp Definition
°C
Dew Point Temp Definition
°C
Rel Hum Definition
%
Wind Dir Definition
10's deg

Wind Spd Definition
km/h
Visibility Definition
km
Stn Press Definition
kPa
Hmdx Definition


Wind Chill Definition


Weather Definition


TIME
00:00 Legend Double Dagger 18.0 11.7 67 20 14 24.1 99.90     LegendNANA
01:00 Legend Double Dagger 19.2 11.9 62 20 15 24.1 99.88     Mostly Cloudy
02:00 Legend Double Dagger 18.4 12.5 68 20 19 24.1 99.83     LegendNANA
03:00 Legend Double Dagger 17.8 12.8 72 20 16 24.1 99.78     LegendNANA
04:00 Legend Double Dagger 17.9 13.1 73 19 18 24.1 99.72     Mainly Clear
05:00 Legend Double Dagger 18.8 13.6 71 22 17 24.1 99.70     LegendNANA
06:00 Legend Double Dagger 19.1 13.9 72 22 18 24.1 99.68     LegendNANA
07:00 Legend Double Dagger 19.2 14.6 74 22 20 24.1 99.64     Mostly Cloudy
08:00 Legend Double Dagger 21.0 15.7 71 22 26 24.1 99.62 25   LegendNANA
09:00 Legend Double Dagger 22.4 16.5 69 23 25 24.1 99.59 27   LegendNANA
10:00 Legend Double Dagger 23.4 17.1 67 23 31 24.1 99.50 29   Mostly Cloudy
11:00 Legend Double Dagger 24.9 17.9 65 22 29 24.1 99.43 31   LegendNANA
12:00 Legend Double Dagger 21.4 18.2 82 24 31 16.1 99.41 28   Thunderstorms,Rain Showers
13:00 Legend Double Dagger 20.2 19.1 94 22 25 16.1 99.32 27   Cloudy
14:00 Legend Double Dagger 22.1 19.8 87 22 23 24.1 99.22 30   LegendNANA
15:00 Legend Double Dagger 22.9 19.4 80 22 29 16.1 99.15 30   LegendNANA
16:00 Legend Double Dagger 22.7 18.8 78 22 32 24.1 99.08 29   Mainly Clear
17:00 Legend Double Dagger 21.9 18.8 82 22 27 24.1 99.08 29   LegendNANA
18:00 Legend Double Dagger 20.8 18.6 87 23 23 24.1 99.08 27   Rain Showers
19:00 Legend Double Dagger 20.7 18.7 88 24 19 24.1 99.13 27   Mostly Cloudy
20:00 Legend Double Dagger 18.4 17.0 91 32 23 24.1 99.26     Rain Showers
21:00 Legend Double Dagger 16.7 15.6 93 34 12 24.1 99.32     LegendNANA
22:00 Legend Double Dagger 14.9 13.1 89 36 10 24.1 99.33     Clear
23:00 Legend Double Dagger 14.1 12.2 88 35 5 24.1 99.36     LegendNANA

Notes on Data Quality.

Legend

  • E = Estimated
  • M = Missing
  • NA = Not Available
  • ‡ = Partner data that is not subject to review by the National Climate Archives
Date modified: